Weather History for Cherokee, IA

Change the Weather History Date:

Thursday, July 25, 2013

  Actual Average Record
Temperature  
Mean Temperature 74 °F -  
Max Temperature 89 °F 85 °F 97 °F (2012)
Min Temperature 59 °F 61 °F 48 °F (1958)
Cooling Degree Days 9    
Growing Degree Days 24 (Base 50)    
Moisture  
Dew Point 64 °F    
Average Humidity 74    
Maximum Humidity 96    
Minimum Humidity 39    
Precipitation  
Precipitation 0.37 in - - ()
Sea Level Pressure  
Sea Level Pressure 30.00 in    
Wind  
Wind Speed 4 mph (SW)    
Max Wind Speed 22 mph    
Max Gust Speed 28 mph    
Visibility 10 miles    
Events Rain , Thunderstorm    
Averages and records for this station are not official NWS values.
T = Trace of Precipitation, MM = Missing Value Source: NWS Daily Summary

Daily Weather History Graph

Daily Weather History Graph

Search for Another Location

Airport:

Trip Planner

Search our weather history database for the weather conditions in past years. The results will help you decide how hot, cold, wet, or windy it might be!

Date:

Astronomy

Jul. 25, 2013 Rise Set
Actual Time 6:06 AM CDT 8:49 PM CDT
Civil Twilight 5:34 AM CDT 9:22 PM CDT
Nautical Twilight 4:52 AM CDT 10:03 PM CDT
Astronomical Twilight 4:05 AM CDT 10:50 PM CDT
Moon 10:23 PM CDT (7/25) 9:43 AM CDT (7/25)
Length of Visible Light 15h 48m
Length of Day
14h 42m
Waning Gibbous, 88% of the Moon is Illuminated
Jul 25
Waning Gibbous
Jul 29
Last Quarter
Aug 6
New
Aug 14
First Quarter
Aug 20
Full

Hourly Weather History & Observations

Time (CDT) Temp. Heat Index Dew Point Humidity Pressure Visibility Wind Dir Wind Speed Gust Speed Precip Events Conditions
12:15 AM 63.9 °F - 61.0 °F 90% 30.04 in 10.0 mi Calm Calm - N/A   Clear
12:35 AM 63.5 °F - 60.6 °F 90% 30.04 in 10.0 mi Calm Calm - N/A   Clear
12:55 AM 62.6 °F - 59.5 °F 90% 30.04 in 10.0 mi Calm Calm - N/A   Clear
1:15 AM 63.0 °F - 60.8 °F 93% 30.04 in 10.0 mi Calm Calm - N/A   Clear
1:35 AM 62.6 °F - 60.1 °F 91% 30.05 in 10.0 mi Calm Calm - N/A   Clear
1:55 AM 62.4 °F - 59.7 °F 91% 30.05 in 10.0 mi Calm Calm - N/A   Clear
2:15 AM 61.7 °F - 59.2 °F 91% 30.05 in 10.0 mi Calm Calm - N/A   Clear
2:35 AM 61.2 °F - 59.0 °F 93% 30.05 in 10.0 mi Calm Calm - N/A   Clear
2:55 AM 61.0 °F - 59.0 °F 93% 30.05 in 10.0 mi Calm Calm - N/A   Clear
3:15 AM 60.3 °F - 58.5 °F 94% 30.04 in 10.0 mi Calm Calm - N/A   Clear
3:35 AM 61.3 °F - 59.2 °F 93% 30.03 in 10.0 mi Calm Calm - N/A   Clear
3:55 AM 60.4 °F - 58.8 °F 94% 30.03 in 10.0 mi Calm Calm - N/A   Clear
4:15 AM 61.0 °F - 59.4 °F 94% 30.02 in 10.0 mi Calm Calm - N/A   Clear
4:35 AM 61.2 °F - 59.9 °F 96% 30.03 in 10.0 mi Calm Calm - N/A   Clear
4:55 AM 60.3 °F - 59.0 °F 96% 30.02 in 10.0 mi Calm Calm - N/A   Clear
5:15 AM 60.8 °F - 59.0 °F 94% 30.02 in 10.0 mi Calm Calm - N/A   Clear
5:35 AM 59.4 °F - 57.9 °F 95% 30.03 in 10.0 mi Calm Calm - N/A   Clear
5:55 AM 59.5 °F - 58.3 °F 96% 30.04 in 10.0 mi Calm Calm - N/A   Clear
6:15 AM 60.3 °F - 59.2 °F 96% 30.04 in 10.0 mi Calm Calm - N/A   Clear
6:35 AM 61.2 °F - 59.9 °F 96% 30.04 in 10.0 mi Calm Calm - N/A   Clear
6:55 AM 60.8 °F - 59.2 °F 94% 30.03 in 10.0 mi Calm Calm - N/A   Clear
7:15 AM 63.7 °F - 61.5 °F 93% 30.03 in 10.0 mi Calm Calm - N/A   Clear
7:35 AM 65.8 °F - 62.6 °F 89% 30.03 in 10.0 mi Calm Calm - N/A   Clear
7:55 AM 68.5 °F - 63.7 °F 84% 30.04 in 7.0 mi Calm Calm - N/A   Clear
8:15 AM 71.4 °F - 64.4 °F 78% 30.03 in 10.0 mi South 5.8 mph - N/A   Clear
8:35 AM 73.2 °F - 64.6 °F 74% 30.03 in 10.0 mi SSW 5.8 mph - N/A   Clear
8:55 AM 75.7 °F - 64.8 °F 69% 30.03 in 10.0 mi SSW 6.9 mph - N/A   Clear
9:15 AM 77.7 °F - 65.1 °F 65% 30.03 in 10.0 mi South 5.8 mph - N/A   Clear
9:35 AM 78.8 °F - 65.3 °F 63% 30.02 in 10.0 mi South 8.1 mph - N/A   Scattered Clouds
9:55 AM 79.9 °F - 65.1 °F 61% 30.02 in 10.0 mi South 9.2 mph - N/A   Mostly Cloudy
10:15 AM 79.9 °F - 64.2 °F 59% 30.02 in 10.0 mi SSW 9.2 mph - N/A   Mostly Cloudy
10:35 AM 80.6 °F 82.2 °F 64.2 °F 57% 30.02 in 10.0 mi SSW 8.1 mph - N/A   Scattered Clouds
10:55 AM 80.8 °F 82.5 °F 64.6 °F 58% 30.02 in 10.0 mi SSW 10.4 mph - N/A   Clear
11:15 AM 82.4 °F 84.1 °F 64.8 °F 55% 30.01 in 10.0 mi SSW 10.4 mph - N/A   Clear
11:35 AM 83.8 °F 84.9 °F 63.5 °F 50% 30.00 in 10.0 mi SSW 13.8 mph 20.7 mph N/A   Clear
11:55 AM 85.1 °F 86.4 °F 63.7 °F 49% 30.00 in 10.0 mi South 13.8 mph - N/A   Clear
12:15 PM 85.8 °F 86.6 °F 63.1 °F 46% 29.99 in 10.0 mi SSW 12.7 mph 21.9 mph N/A   Clear
12:35 PM 86.2 °F 87.1 °F 63.0 °F 46% 29.99 in 10.0 mi SSW 12.7 mph 18.4 mph N/A   Clear
12:55 PM 86.9 °F 88.1 °F 63.9 °F 46% 29.98 in 10.0 mi South 13.8 mph - N/A   Clear
1:15 PM 86.2 °F 87.9 °F 64.8 °F 49% 29.99 in 10.0 mi SW 13.8 mph 18.4 mph N/A   Clear
1:35 PM 87.6 °F 89.1 °F 64.8 °F 46% 29.99 in 10.0 mi SW 15.0 mph - N/A   Clear
1:55 PM 87.8 °F 89.4 °F 64.9 °F 46% 29.98 in 10.0 mi South 11.5 mph 16.1 mph N/A   Clear
2:15 PM 86.7 °F 88.7 °F 65.7 °F 49% 29.98 in 10.0 mi SSW 8.1 mph - N/A   Scattered Clouds
2:35 PM 86.2 °F 87.6 °F 64.4 °F 48% 29.97 in 10.0 mi SW 9.2 mph - N/A   Scattered Clouds
2:55 PM 87.8 °F 89.7 °F 65.5 °F 47% 29.96 in 10.0 mi SW 4.6 mph - N/A   Scattered Clouds
3:15 PM 88.0 °F 89.3 °F 64.4 °F 45% 29.95 in 10.0 mi WSW 6.9 mph - N/A   Scattered Clouds
3:35 PM 87.4 °F 89.1 °F 64.8 °F 47% 29.94 in 10.0 mi SW 6.9 mph - N/A   Scattered Clouds
3:55 PM 87.4 °F 89.8 °F 66.2 °F 49% 29.94 in 10.0 mi SW 10.4 mph - N/A   Mostly Cloudy
4:15 PM 89.1 °F 91.0 °F 65.3 °F 45% 29.93 in 10.0 mi SW 10.4 mph - N/A   Scattered Clouds
4:35 PM 88.3 °F 90.5 °F 65.5 °F 47% 29.94 in 10.0 mi SW 9.2 mph - N/A   Mostly Cloudy
4:55 PM 83.1 °F 82.3 °F 55.9 °F 39% 29.95 in 10.0 mi SSW 15.0 mph 25.3 mph N/A   Overcast
5:15 PM 80.1 °F 81.0 °F 60.4 °F 51% 29.95 in 10.0 mi South 8.1 mph - N/A Thunderstorm Mostly Cloudy
5:35 PM 78.8 °F - 59.5 °F 52% 29.94 in 10.0 mi SSW 6.9 mph - N/A   Scattered Clouds
5:55 PM 78.8 °F - 61.7 °F 56% 29.94 in 10.0 mi South 5.8 mph - N/A Thunderstorm Thunderstorm
6:15 PM 79.0 °F - 66.6 °F 66% 29.94 in 10.0 mi SSW 5.8 mph - N/A Thunderstorm Scattered Clouds
6:35 PM 79.7 °F - 69.1 °F 70% 29.91 in 10.0 mi SSW 12.7 mph - N/A Rain , Thunderstorm Light Thunderstorms and Rain
6:55 PM 76.5 °F - 71.2 °F 84% 29.96 in 5.0 mi WSW 9.2 mph - 0.05 in Rain , Thunderstorm Rain
7:15 PM 73.6 °F - 69.8 °F 88% 29.95 in 7.0 mi SW 11.5 mph 16.1 mph 0.01 in Rain Light Rain
7:35 PM 73.6 °F - 70.0 °F 88% 29.96 in 7.0 mi SW 21.9 mph 27.6 mph 0.02 in Rain Light Rain
7:55 PM 72.5 °F - 68.2 °F 86% 29.94 in 10.0 mi SW 11.5 mph - 0.02 in   Scattered Clouds
8:15 PM 71.6 °F - 67.1 °F 86% 29.94 in 10.0 mi SW 10.4 mph 16.1 mph N/A   Clear
8:35 PM 71.4 °F - 67.1 °F 86% 29.95 in 10.0 mi WSW 9.2 mph - N/A   Clear
8:55 PM 71.6 °F - 67.1 °F 86% 29.97 in 10.0 mi NNW 5.8 mph - N/A Thunderstorm Thunderstorm
9:15 PM 71.6 °F - 67.6 °F 87% 29.99 in 10.0 mi North 6.9 mph - N/A Thunderstorm Mostly Cloudy
9:35 PM 73.2 °F - 66.0 °F 78% 30.01 in 4.0 mi WSW 9.2 mph 25.3 mph 0.13 in Rain , Thunderstorm Heavy Thunderstorms and Rain
9:55 PM 71.1 °F - 67.8 °F 89% 30.01 in 4.0 mi WSW 9.2 mph - 0.26 in Rain , Thunderstorm Heavy Thunderstorms and Rain
10:15 PM 70.7 °F - 68.0 °F 91% 30.01 in 10.0 mi WSW 4.6 mph 17.3 mph N/A Rain Light Rain
10:35 PM 70.7 °F - 68.4 °F 92% 30.01 in 10.0 mi SW 5.8 mph - 0.02 in Rain Light Rain
10:55 PM 70.3 °F - 68.4 °F 93% 30.01 in 10.0 mi SW 4.6 mph - 0.02 in   Overcast
11:15 PM 70.7 °F - 68.4 °F 92% 30.01 in 7.0 mi SW 4.6 mph - 0.02 in Rain Rain
11:35 PM 70.7 °F - 68.4 °F 92% 30.00 in 10.0 mi SW 9.2 mph - 0.02 in   Drizzle
11:55 PM 70.7 °F - 68.2 °F 92% 30.00 in 10.0 mi SW 6.9 mph - 0.02 in   Overcast